Regional Weather Roundup
Issued by NWS

Home | Current Version | Previous Version | Graphics & Text | Print | Product List | Glossary On
Versions: 1 2 3 4 5 6 7 8 9 10 11 12 13 14 15 16 17 18 19 20 21 22 23 24 25 26 27 28 29 30 31 32 33 34 35 36 37 38 39 40 41 42 43 44 45 46 47 48 49 50
000
ASUS43 KMPX 140410
RWRMN
WEATHER ROUNDUP FOR MINNESOTA
NATIONAL WEATHER SERVICE TWIN CITIES/CHANHASSEN MN
1000 PM CST WED DEC 13 2017


NOTE: "FAIR" INDICATES FEW OR NO CLOUDS BELOW 12,000 FEET WITH NO
SIGNIFICANT WEATHER AND/OR OBSTRUCTIONS TO VISIBILITY. N/A MEANS
CURRENT SKY AND/OR WEATHER CONDITIONS ARE NOT AVAILABLE.

MNZ060>063-068>070-140500-
   Twin Cities Metro

CITY           SKY/WX    TMP DP  RH WIND       PRES   REMARKS
TWIN CITIES    PTCLDY    19  15  84 N8        29.93R WCI   9
ST PAUL        CLEAR     17  13  84 N8        29.95R WCI   7
CRYSTAL        CLOUDY    19  12  74 N6        29.92R WCI  11
BLAINE         CLOUDY    21  18  86 N7        29.93R WCI  13
LAKEVILLE      CLEAR     16  12  86 NW5       29.92R WCI   9
EDEN PRAIRIE   CLEAR     19  13  77 N6        29.92R WCI  11
SOUTH ST PAUL  CLEAR     19  15  82 N3        29.93R
LAKE ELMO      FAIR      18  14  86 N3        29.94R
$$
MNZ001>005-007-008-013>017-022>024-027-028-140500-
   Northwest Minnesota

CITY           SKY/WX    TMP DP  RH WIND       PRES   REMARKS
BEMIDJI        FLURRIES  12   9  85 NW5       29.93R WCI   5
HALLOCK        FLURRIES  16  12  86 NE3       29.97F
ROSEAU         CLOUDY     9   3  78 CALM      29.95F
WARROAD        CLOUDY     9   3  78 W3        29.94F
THIEF RVR FALL FLURRIES  14  11  87 N5        29.97F WCI   6
CROOKSTON      FLURRIES  16  10  79 NE10      30.00S WCI   3
FOSSTON        FLURRIES  12   9  85 N5        29.96R WCI   4
DETROIT LAKES  CLOUDY    18  14  86 NW7       29.95R WCI   8
MOORHEAD       MIX PCPN  18  12  79 N10       30.01R WCI   6
PARK RAPIDS    CLOUDY    14  10  84 NE6       29.92S WCI   5
MAHNOMEN       FLURRIES  13  10  85 NW7       29.97R WCI   3
$$
MNZ006-009>011-018-025>026-140500-
   North Central Minnesota

CITY           SKY/WX    TMP DP  RH WIND       PRES   REMARKS
BAUDETTE       CLOUDY     5   3  91 NW3       29.94R
FLAG ISLAND    CLOUDY     3   1  92 CALM      29.93F
INTL FALLS     CLOUDY    14  10  84 NW6       29.92S WCI   5
WASKISH        FLURRIES  12  10  92 CALM      29.94R
BIG FORK       CLOUDY    16  12  86 CALM      29.91R
LONGVILLE      FLURRIES  16  12  86 W5        29.92S WCI   9
GRAND RAPIDS   FLURRIES  17  13  84 NW8       29.92S WCI   7
CRANE LAKE     FLURRIES  12  10  92 CALM      29.94R
ORR            CLOUDY    16  10  79 NW3       29.88R
COOK           FLURRIES  14  10  85 CALM      29.91R
WALKER         FLURRIES  13  10  86 NE5       29.92F WCI   5
$$
MNZ012-019>021-037-140500-
   Northeast Minnesota

CITY           SKY/WX    TMP DP  RH WIND       PRES   REMARKS
DULUTH         CLEAR     12  10  92 NW7       29.88S WCI   1
ELY            FLURRIES   9   7  92 CALM      29.89S
HIBBING        CLOUDY    15  11  83 N7        29.90R WCI   5
EVELETH        LGT SNOW  12   7  81 CALM      29.91R
DULUTH HARBOR  CLOUDY    21  16  79 N10       29.95R WCI  10
TWO HARBORS    CLEAR      7   1  78 CALM      29.89R
SILVER BAY     CLEAR      0  -4  85 CALM      29.89R
GRAND MARAIS     N/A      9   1  70 CALM      29.94R
G MARAIS ARPRT CLEAR      0  -6  78 N8        29.82S WCI -15
$$
MNZ029>031-032-039>041-046>048-054>057-064-140500-
   West Central Minnesota

CITY           SKY/WX    TMP DP  RH WIND       PRES   REMARKS
FERGUS FALLS   CLOUDY    18  14  86 N5        30.00R WCI  11
WHEATON        CLOUDY    19  16  86 N12       30.00S WCI   7
MORRIS         CLOUDY    19  16  86 NW7       29.96R WCI  10
ALEXANDRIA     CLOUDY    19  13  77 NE7       29.94R WCI  10
ELBOW LAKE     CLOUDY    19  15  86 W9        29.96S WCI   8
WADENA         FLURRIES  14  10  85 NE5       29.93S WCI   6
GLENWOOD       PTCLDY    19  16  86 NE7       29.94S WCI  10
APPLETON       CLOUDY    23  16  74 N9        29.98R WCI  13
BENSON         CLOUDY    21  16  79 NE6       29.98R WCI  14
ORTONVILLE     CLOUDY    21  16  79 N16       29.97S WCI   7
MADISON        CLOUDY    25  19  80 N16       29.98S WCI  12
WILLMAR        CLOUDY    23  16  74 N8        29.96R WCI  14
$$
MNZ033>034-036-042>043-049>051-058-059-140500-
   Central Minnesota

CITY           SKY/WX    TMP DP  RH WIND       PRES   REMARKS
ST CLOUD       CLEAR     13  10  88 NW5       29.94R WCI   5
SAUK CENTRE    FAIR      15  11  84 NW7       29.95R WCI   5
PAYNESVILLE    PTCLDY    13  11  92 NW6       29.95R WCI   4
AITKIN         FLURRIES  16  12  86 NW3       29.91R
PINE RIVER     CLOUDY    14  10  85 N5        29.96F WCI   6
BRAINERD       CLOUDY    17  11  77 N9        29.93R WCI   6
STAPLES        CLOUDY    14  10  85 N5        29.94R WCI   6
LONG PRAIRIE   CLOUDY    16  12  86 NW6       29.94R WCI   7
LITTLE FALLS   CLOUDY     9   3  78 CALM      29.95R
LITCHFIELD     CLEAR     16  12  86 NW6       29.95R WCI   7
BUFFALO        PTCLDY    17  13  84 NW3       29.95R
MAPLE LAKE     CLEAR     17  14  88 NW7       29.95R WCI   8
HUTCHINSON     CLEAR     18  14  85 N8        29.95R WCI   7
$$
MNZ037-044-045-052-053-140500-
   East Central Minnesota

CITY           SKY/WX    TMP DP  RH WIND       PRES   REMARKS
PRINCETON      CLOUDY    19  16  86 CALM      29.92S
MORA           CLEAR     14  10  85 CALM      29.94R
CAMBRIDGE      MIX PCPN  21  12  68 CALM      29.93S
RUSH CITY      FLURRIES  21  17  84 N3        29.92S
MOOSE LAKE     CLOUDY    19  14  79 N6        29.90S WCI  11
HINCKLEY       FLURRIES  21  18  86 NE7       29.92S WCI  13
CLOQUET        MOCLDY    16  10  79 N3        29.90R
MCGREGOR       CLOUDY    19  16  86 N5        29.92R WCI  13
$$
MNZ071>073-080-081-089-090-097-098-140500-
   Southwest Minnesota

CITY           SKY/WX    TMP DP  RH WIND       PRES   REMARKS
MONTEVIDEO     CLOUDY    23  18  80 N12       29.97R WCI  12
GRANITE FALLS  CLOUDY    26  18  74 N8        29.98S WCI  17
CANBY          CLOUDY    25  22  88 N10       29.97S WCI  15
MARSHALL       CLOUDY    23  18  81 N18G28    29.96R WCI   9
REDWOOD FALLS  CLOUDY    24  15  68 N7        29.95R WCI  16
OLIVIA         CLOUDY    21  16  79 N5        29.95R WCI  15
PIPESTONE      CLOUDY    27  23  86 N9        29.94R WCI  17
WINDOM           N/A     25  10  54 N13       29.93R WCI  13
WORTHINGTON    CLOUDY    25  21  85 N22G28    29.93R WCI  10
JACKSON        CLOUDY    27  19  74 MISG      29.92R
SLAYTON        CLOUDY    25  22  89 N16G23    29.94R WCI  12
$$
MNZ065>067-074>077-082>085-091>093-140500-
   South Central Minnesota

CITY           SKY/WX    TMP DP  RH WIND       PRES   REMARKS
MANKATO        CLEAR     19  15  84 N7        29.93R WCI  10
NEW ULM        CLEAR     19  14  79 N9        29.95R WCI   9
ST JAMES       CLOUDY    23  18  80 N13       29.95R WCI  11
FAIRMONT       CLOUDY    23  18  81 N12       29.94R WCI  12
GLENCOE        CLEAR     18  16  91 N6        29.93R WCI  10
FARIBAULT      CLEAR     19  16  86 N6        29.91R WCI  11
OWATONNA       CLEAR     19  16  86 N7        29.90R WCI  10
WASECA         CLEAR     19  16  86 N9        29.91S WCI   9
ALBERT LEA     CLOUDY    21  16  79 N12       29.88S WCI   9
$$
MNZ078>079-086>088-094>096-140500-
   Southeast Minnesota

CITY           SKY/WX    TMP DP  RH WIND       PRES   REMARKS
ROCHESTER      CLEAR     19  14  81 N13       29.87R WCI   6
RED WING       CLEAR     19  10  68 N3        29.91R
STANTON        CLEAR     20  15  81 N6        29.91R WCI  12
DODGE CENTER   PTCLDY    18  16  93 N7        29.88R WCI   8
WINONA           N/A     21  14  73 N5        29.92R WCI  15
AUSTIN         PTCLDY    21  16  79 N8        29.88R WCI  12
PRESTON        CLEAR     18  13  80 N8        29.87R WCI   8
$$
ABBREVIATIONS USED IN REMARKS
   TC - TEMPERATURES IN CELSIUS
  WCI - WIND CHILL INDEX
   HX - HEAT INDEX
  VSB - VISIBILITY
$$




USA.gov is the U.S. government's official web portal to all federal, state and local government web resources and services.